• In United Kingdom
  • List of Countries
  • For 7 days
  • Water Temperature
  • Satellite Maps
  • Weather Map
  • Weather Widgets
  • user-avatar
    Login

    Hourly Weather Barra

    Today, 23 October, Monday

    Time Temperature Precipitation Wind Pressure Humidity
    00:00 +22°C° 0 mm 1 mps 747 mmHg 88%
    01:00 +22°C° 0 mm 1 mps 747 mmHg 88%
    02:00 +22°C° 0.1 mm 1 mps 747 mmHg 87%
    03:00 +22°C° 0.1 mm 1 mps 747 mmHg 87%
    04:00 +22°C° 0 mm 1 mps 747 mmHg 87%
    05:00 +23°C° 0 mm 1 mps 748 mmHg 83%
    06:00 +24°C° 0 mm 1 mps 748 mmHg 79%
    07:00 +24°C° 0 mm 1 mps 748 mmHg 76%
    08:00 +27°C° 0 mm 1 mps 748 mmHg 66%
    09:00 +30°C° 0 mm 1 mps 748 mmHg 56%
    10:00 +33°C° 0 mm 1 mps 749 mmHg 45%
    11:00 +33°C° 0 mm 1 mps 748 mmHg 45%
    12:00 +34°C° 0 mm 2 mps 748 mmHg 44%
    13:00 +34°C° 0 mm 2 mps 748 mmHg 44%
    14:00 +33°C° 0 mm 3 mps 747 mmHg 47%
    15:00 +31°C° 0 mm 3 mps 747 mmHg 50%
    16:00 +31°C° 0 mm 3 mps 747 mmHg 54%
    17:00 +29°C° 0 mm 3 mps 747 mmHg 63%
    18:00 +27°C° 0 mm 2 mps 748 mmHg 73%
    19:00 +25°C° 0 mm 2 mps 748 mmHg 82%
    20:00 +25°C° 0 mm 2 mps 748 mmHg 85%
    21:00 +24°C° 0 mm 2 mps 749 mmHg 87%
    22:00 +24°C° 0 mm 2 mps 749 mmHg 90%
    23:00 +24°C° 0 mm 2 mps 749 mmHg 91%

    Tomorrow, 24 October, Tuesday

    Time Temperature Precipitation Wind Pressure Humidity
    00:00 +24°C° 0 mm 2 mps 749 mmHg 91%
    01:00 +24°C° 0 mm 2 mps 749 mmHg 92%
    02:00 +24°C° 0.1 mm 2 mps 749 mmHg 92%
    03:00 +23°C° 0.1 mm 2 mps 749 mmHg 92%
    04:00 +23°C° 0.1 mm 2 mps 749 mmHg 93%
    05:00 +24°C° 0.1 mm 2 mps 750 mmHg 91%
    06:00 +24°C° 0.1 mm 2 mps 750 mmHg 88%
    07:00 +25°C° 0.1 mm 2 mps 751 mmHg 86%
    08:00 +26°C° 0.1 mm 2 mps 751 mmHg 77%
    09:00 +28°C° 0.1 mm 3 mps 751 mmHg 68%
    10:00 +30°C° 0.1 mm 3 mps 751 mmHg 59%
    11:00 +30°C° 0 mm 3 mps 751 mmHg 57%
    12:00 +31°C° 0 mm 3 mps 751 mmHg 55%
    13:00 +31°C° 0 mm 3 mps 750 mmHg 52%
    14:00 +31°C° 0 mm 3 mps 750 mmHg 54%
    15:00 +30°C° 0 mm 3 mps 749 mmHg 55%
    16:00 +30°C° 0 mm 3 mps 749 mmHg 56%
    17:00 +28°C° 0 mm 3 mps 749 mmHg 64%
    18:00 +26°C° 0 mm 3 mps 750 mmHg 72%
    19:00 +24°C° 0 mm 3 mps 750 mmHg 80%
    20:00 +24°C° 0 mm 3 mps 751 mmHg 83%
    21:00 +24°C° 0 mm 3 mps 751 mmHg 87%
    22:00 +22°C° 0 mm 3 mps 752 mmHg 90%
    23:00 +22°C° 0 mm 3 mps 752 mmHg 90%

    Day after tomorrow, 25 October, Wednesday

    Time Temperature Precipitation Wind Pressure Humidity
    00:00 +22°C° 0 mm 3 mps 751 mmHg 89%
    01:00 +22°C° 0 mm 3 mps 751 mmHg 88%
    02:00 +22°C° 0 mm 3 mps 751 mmHg 89%
    03:00 +22°C° 0 mm 3 mps 751 mmHg 89%
    04:00 +22°C° 0 mm 3 mps 750 mmHg 90%
    05:00 +22°C° 0 mm 3 mps 751 mmHg 87%
    06:00 +24°C° 0 mm 3 mps 751 mmHg 84%
    07:00 +25°C° 0 mm 3 mps 752 mmHg 82%
    08:00 +26°C° 0 mm 3 mps 752 mmHg 74%
    09:00 +27°C° 0 mm 3 mps 752 mmHg 67%
    10:00 +29°C° 0 mm 4 mps 752 mmHg 60%
    11:00 +30°C° 0 mm 4 mps 752 mmHg 57%
    12:00 +30°C° 0 mm 4 mps 751 mmHg 54%
    13:00 +32°C° 0 mm 4 mps 750 mmHg 51%
    14:00 +30°C° 0 mm 3 mps 750 mmHg 52%
    15:00 +30°C° 0 mm 3 mps 750 mmHg 54%
    16:00 +29°C° 0 mm 3 mps 749 mmHg 55%
    17:00 +28°C° 0 mm 3 mps 750 mmHg 63%
    18:00 +26°C° 0 mm 2 mps 750 mmHg 70%
    19:00 +24°C° 0 mm 2 mps 750 mmHg 78%
    20:00 +23°C° 0 mm 2 mps 751 mmHg 81%
    21:00 +23°C° 0 mm 2 mps 751 mmHg 84%
    22:00 +22°C° 0 mm 1 mps 752 mmHg 87%
    23:00 +22°C° 0 mm 1 mps 751 mmHg 89%

    26 October, Thursday

    Time Temperature Precipitation Wind Pressure Humidity
    00:00 +22°C° 0 mm 1 mps 751 mmHg 90%
    01:00 +21°C° 0 mm 1 mps 750 mmHg 92%
    02:00 +21°C° 0 mm 1 mps 750 mmHg 93%
    03:00 +21°C° 0 mm 1 mps 749 mmHg 94%
    04:00 +21°C° 0 mm 1 mps 749 mmHg 95%
    05:00 +22°C° 0 mm 1 mps 750 mmHg 91%
    06:00 +22°C° 0 mm 1 mps 750 mmHg 88%
    07:00 +23°C° 0 mm 1 mps 750 mmHg 85%
    08:00 +26°C° 0 mm 2 mps 750 mmHg 73%
    09:00 +28°C° 0 mm 2 mps 750 mmHg 61%
    10:00 +30°C° 0 mm 2 mps 750 mmHg 49%
    11:00 +31°C° 0 mm 2 mps 749 mmHg 46%
    12:00 +32°C° 0 mm 2 mps 749 mmHg 42%
    13:00 +34°C° 0 mm 2 mps 748 mmHg 39%
    14:00 +32°C° 0 mm 2 mps 747 mmHg 41%
    15:00 +31°C° 0 mm 2 mps 747 mmHg 42%
    16:00 +31°C° 0 mm 2 mps 746 mmHg 44%
    17:00 +29°C° 0 mm 2 mps 747 mmHg 53%
    18:00 +26°C° 0 mm 1 mps 747 mmHg 63%
    19:00 +24°C° 0 mm 1 mps 748 mmHg 73%
    20:00 +23°C° 0 mm 1 mps 748 mmHg 77%
    21:00 +23°C° 0 mm 1 mps 748 mmHg 81%
    22:00 +22°C° 0 mm 1 mps 749 mmHg 85%
    23:00 +21°C° 0 mm 1 mps 748 mmHg 86%

    27 October, Friday

    Time Temperature Precipitation Wind Pressure Humidity
    00:00 +21°C° 0 mm 1 mps 748 mmHg 87%
    01:00 +21°C° 0 mm 1 mps 747 mmHg 88%
    02:00 +21°C° 0 mm 1 mps 747 mmHg 87%
    03:00 +20°C° 0 mm 1 mps 747 mmHg 85%
    04:00 +20°C° 0 mm 1 mps 747 mmHg 84%
    05:00 +21°C° 0 mm 1 mps 747 mmHg 78%
    06:00 +22°C° 0 mm 1 mps 747 mmHg 72%
    07:00 +24°C° 0 mm 1 mps 748 mmHg 66%
    08:00 +27°C° 0 mm 1 mps 748 mmHg 56%
    09:00 +30°C° 0 mm 1 mps 748 mmHg 45%
    10:00 +34°C° 0 mm 2 mps 748 mmHg 35%
    11:00 +35°C° 0 mm 2 mps 747 mmHg 34%
    12:00 +36°C° 0 mm 2 mps 747 mmHg 32%
    13:00 +37°C° 0 mm 2 mps 746 mmHg 31%
    14:00 +35°C° 0 mm 3 mps 746 mmHg 35%
    15:00 +34°C° 0 mm 3 mps 745 mmHg 39%
    16:00 +33°C° 0 mm 3 mps 745 mmHg 43%
    17:00 +30°C° 0 mm 3 mps 746 mmHg 54%
    18:00 +27°C° 0 mm 2 mps 746 mmHg 65%
    19:00 +25°C° 0 mm 2 mps 747 mmHg 75%
    20:00 +24°C° 0 mm 2 mps 747 mmHg 79%
    21:00 +24°C° 0 mm 2 mps 748 mmHg 83%
    22:00 +23°C° 0 mm 2 mps 748 mmHg 86%
    23:00 +23°C° 0 mm 2 mps 748 mmHg 86%

    28 October, Saturday

    Time Temperature Precipitation Wind Pressure Humidity
    00:00 +23°C° 0 mm 2 mps 747 mmHg 86%
    01:00 +21°C° 0 mm 2 mps 747 mmHg 86%
    02:00 +21°C° 0 mm 2 mps 747 mmHg 84%
    03:00 +22°C° 0 mm 1 mps 746 mmHg 82%
    04:00 +22°C° 0 mm 1 mps 746 mmHg 80%
    05:00 +23°C° 0 mm 1 mps 747 mmHg 75%
    06:00 +24°C° 0 mm 1 mps 748 mmHg 69%
    07:00 +25°C° 0 mm 1 mps 748 mmHg 63%
    08:00 +28°C° 0 mm 1 mps 748 mmHg 54%
    09:00 +31°C° 0 mm 1 mps 748 mmHg 45%
    10:00 +33°C° 0 mm 1 mps 749 mmHg 36%
    11:00 +35°C° 0 mm 2 mps 748 mmHg 35%
    12:00 +36°C° 0 mm 2 mps 747 mmHg 34%
    13:00 +37°C° 0 mm 2 mps 747 mmHg 33%
    14:00 +36°C° 0 mm 3 mps 747 mmHg 37%
    15:00 +35°C° 0 mm 3 mps 746 mmHg 42%
    16:00 +34°C° 0 mm 3 mps 746 mmHg 46%
    17:00 +31°C° 0 mm 3 mps 747 mmHg 57%
    18:00 +28°C° 0 mm 3 mps 747 mmHg 68%
    19:00 +26°C° 0 mm 3 mps 747 mmHg 79%
    20:00 +25°C° 0 mm 2 mps 748 mmHg 83%
    21:00 +25°C° 0 mm 2 mps 748 mmHg 87%
    22:00 +24°C° 0 mm 2 mps 749 mmHg 91%
    23:00 +24°C° 0 mm 2 mps 748 mmHg 92%

    29 October, Sunday

    Time Temperature Precipitation Wind Pressure Humidity
    00:00 +23°C° 0 mm 2 mps 748 mmHg 93%
    01:00 +23°C° 0 mm 2 mps 748 mmHg 94%
    02:00 +23°C° 0 mm 1 mps 748 mmHg 93%
    03:00 +23°C° 0 mm 1 mps 748 mmHg 93%
    04:00 +23°C° 0 mm 1 mps 748 mmHg 92%
    05:00 +24°C° 0 mm 1 mps 748 mmHg 87%
    06:00 +25°C° 0 mm 1 mps 749 mmHg 82%
    07:00 +26°C° 0 mm 1 mps 749 mmHg 77%
    08:00 +28°C° 0 mm 1 mps 749 mmHg 66%
    09:00 +31°C° 0 mm 1 mps 749 mmHg 56%
    10:00 +34°C° 0 mm 1 mps 749 mmHg 46%
    11:00 +35°C° 0 mm 2 mps 749 mmHg 44%
    12:00 +36°C° 0 mm 2 mps 748 mmHg 43%
    13:00 +37°C° 0 mm 3 mps 748 mmHg 41%
    14:00 +36°C° 0 mm 3 mps 747 mmHg 46%
    15:00 +35°C° 0 mm 3 mps 747 mmHg 51%
    16:00 +34°C° 0 mm 3 mps 747 mmHg 56%
    17:00 +31°C° 0 mm 3 mps 747 mmHg 66%
    18:00 +29°C° 0 mm 3 mps 748 mmHg 76%
    19:00 +27°C° 0 mm 3 mps 748 mmHg 86%
    20:00 +27°C° 0 mm 2 mps 749 mmHg 86%
    21:00 +26°C° 0 mm 2 mps 749 mmHg 87%
    22:00 +26°C° 0 mm 2 mps 749 mmHg 88%
    23:00 +26°C° 0 mm 2 mps 749 mmHg 90%
    Show more